User: anonymous   Login
Location: Unspecified
(0.0000°N, 0.0000°E)
Time: 06:56:02
(UTC+00:00)
Language:

SL-12 R/B(2) - Orbit

View from above orbital plane
View from above orbital plane
View from above satellite
View from above satellite

Ground track
Ground track

The orbit data is extracted from the following two-line orbital elements,

1 26486U 00051D   23037.82479904 -.00000012  00000-0  00000+0 0  9993
2 26486  63.0883 325.4807 7484954 275.4708 203.3775  1.45765413119351
Epoch (UTC): 06 February 2023 19:47:42
Eccentricity: 0.7484954
inclination: 63.0883°
perigee height: 1885 km
apogee height: 51072 km
right ascension of ascending node: 325.4807°
argument of perigee: 275.4708°
revolutions per day: 1.45765413
mean anomaly at epoch: 203.3775°
orbit number at epoch: 11935

The dashed part of the orbit path shows where the satellite is in the earth's shadow,  

DLR